Regional Weather Roundup
Issued by NWS

Home | Current Version | Previous Version | Graphics & Text | Print | Product List | Glossary On
Versions: 1 2 3 4 5 6 7 8 9 10 11 12 13 14 15 16 17 18 19 20 21 22 23 24 25 26 27 28 29 30 31 32 33 34 35 36 37 38 39 40 41 42 43 44 45 46 47 48 49 50
000
ASUS43 KLOT 250006
RWRIL

ILLINOIS REGIONAL WEATHER ROUNDUP
NATIONAL WEATHER SERVICE CHICAGO/ROMEOVILLE IL
600 PM CST SAT JAN 24 2015

NOTE: "FAIR" INDICATES FEW OR NO CLOUDS BELOW 12,000 FEET WITH NO
SIGNIFICANT WEATHER AND/OR OBSTRUCTIONS TO VISIBILITY.

* THESE STATIONS ARE NOT UNDER NWS QUALITY CONTROL. THEY ALSO MAY NOT
  REPORT WEATHER SUCH AS PRECIPITATION OR FOG.

ILZ001-002-007-009-015-016-024-250100-
NORTHWEST ILLINOIS

CITY           SKY/WX    TMP DP  RH WIND       PRES   REMARKS
MOLINE         MOCLDY    41  33  73 S6        29.66F
6HR MIN TEMP:  40; 6HR MAX TEMP:  48;

STERLING*      PTCLDY    37  34  87 W3        29.67S
SAVANNA*       MOCLDY    36  32  84 S3        29.66S
$$

ILZ003-004-008-010-011-017-018-250100-
NORTH CENTRAL ILLINOIS

CITY           SKY/WX    TMP DP  RH WIND       PRES   REMARKS
ROCKFORD       MOCLDY    32  29  88 CALM      29.68R
6HR MIN TEMP:  32; 6HR MAX TEMP:  40;

FREEPORT*      PTCLDY    29  27  94 CALM      29.68R
ROCHELLE*      PTCLDY    31  31  98 CALM      29.67S FOG
DE KALB*       CLOUDY    31  30  94 CALM      29.67S
PERU*          CLEAR     38  34  85 W8        29.68S WCI  32
$$

ILZ005-006-012>014-019>023-250100-
NORTHEAST ILLINOIS

CITY           SKY/WX    TMP DP  RH WIND       PRES   REMARKS
CHICAGO-OHARE  MOCLDY    33  29  85 W7        29.68R WCI  27
6HR MIN TEMP:  33; 6HR MAX TEMP:  43;

CHICAGO-MIDWAY CLOUDY    37  31  78 W6        29.69R WCI  32
6HR MIN TEMP:  37; 6HR MAX TEMP:  45;

AURORA         MOCLDY    32  29  88 N3        29.68R FOG
6HR MIN TEMP:  32; 6HR MAX TEMP:  39;

LANSING*       MOCLDY    37  32  81 W5        29.69R WCI  34
JOLIET*        PTCLDY    33  32  94 CALM      29.69R FOG
WAUKEGAN       CLOUDY    33  30  88 SW6       29.64F WCI  28
6HR MIN TEMP:  33; 6HR MAX TEMP:  41;

DUPAGE AIRPORT CLOUDY    33  30  88 CALM      29.67R
6HR MIN TEMP:  33; 6HR MAX TEMP:  39;

KANKAKEE*      PTCLDY    34  33  94 SW6       29.70R WCI  29
WHEELING       CLOUDY    35  30  82 W8        29.69R WCI  29
6HR MIN TEMP:  35; 6HR MAX TEMP:  44;

MORRIS*        CLEAR     38  37  94 CALM      29.68R
ROMEOVILLE*    CLOUDY    33  32  95 N5        29.68R WCI  28
NORTHERLY ISL    N/A     36  31  82 W5          N/A  WCI  32
$$

LMZ740>746-250100-
SOUTHERN LAKE MICHIGAN

STATION/POSITION SKY/WX   TEMP    WIND        PRES    VSBY  WAVE
                          AIR SEA DIR/SP/G                  HT/PER
                          (F)     (DEG/KT/KT) (MB)    (MI)  (FT/S)
WAUKEGAN HARBOR            35     280/  9/ 14   N/A
HARRISON CRIB              36     250/ 15/ 16   N/A
BURNHAM HARBOR             36     280/  6/ 11   N/A
CALUMET HARBOR             37     260/  5/  9   N/A
MICHIGAN CITY              36     210/ 11/ 12   N/A
$$

ILZ025>027-034>036-040-047-049-050-058-095>099-250100-
WEST-CENTRAL ILLINOIS

CITY           SKY/WX    TMP DP  RH WIND       PRES   REMARKS
QUINCY         CLOUDY    43  31  62 SW6       29.70F
GALESBURG*     MOCLDY    38  34  85 S3        29.69S
MACOMB*        MOCLDY    41  34  77 S6        29.72S
JACKSONVILLE*  PTCLDY    44  34  69 SW5       29.74R
PITTSFIELD*    MOCLDY    46  34  62 SW6       29.73S
$$

ILZ028>032-037-038-041>044-048-051>054-059>061-250100-
CENTRAL ILLINOIS

CITY           SKY/WX    TMP DP  RH WIND       PRES   REMARKS
PONTIAC        CLEAR     38  35  90 SW8       29.70S WCI  32
BLOOMINGTON    CLEAR     38  35  89 SW7       29.72R WCI  33
DECATUR        CLEAR     38  33  82 SW7       29.75R WCI  33
PEORIA         PTCLDY    42  34  73 SW6       29.71R
6HR MIN TEMP:  42; 6HR MAX TEMP:  49;

LACON*         MOCLDY    41  34  76 SW7       29.70R
LINCOLN*       PTCLDY    41  35  79 CALM      29.73R
SPRINGFIELD    PTCLDY    43  34  70 SW7       29.74R
6HR MIN TEMP:  42; 6HR MAX TEMP:  50;

TAYLORVILLE    CLEAR     37  32  81 SW7       29.75R WCI  32
$$

ILZ033-039-045-046-055>057-062-063-250100-
EAST-CENTRAL ILLINOIS

CITY           SKY/WX    TMP DP  RH WIND       PRES   REMARKS
CHAMPAIGN      CLEAR     37  33  85 SW10      29.73R WCI  30
DANVILLE*      CLEAR     37  34  90 SW8       29.70S WCI  31
RANTOUL*       PTCLDY    38  35  89 W6        29.72R WCI  34
MATTOON        CLEAR     41  33  73 SW6       29.75R
PARIS*         CLEAR     35  34  93 SW7       29.76R WCI  30
$$

ILZ079-100>102-250100-
SOUTHWEST ILLINOIS

CITY           SKY/WX    TMP DP  RH WIND       PRES   REMARKS
BELLEVILLE     PTCLDY    46  33  59 SW3       29.77R
CAHOKIA*       PTCLDY    50  32  50 S3        29.77S
SPARTA*        PTCLDY    50  31  48 SW3       29.79S
$$

ILZ064>066-069>071-074>076-080>082-084>086-088>090-092>094-250100-
SOUTH-CENTRAL ILLINOIS

CITY           SKY/WX    TMP DP  RH WIND       PRES   REMARKS
CARBONDALE     CLEAR     44  30  57 S10       29.81R
6HR MIN TEMP:  44; 6HR MAX TEMP:  54;

CAIRO*         CLEAR     47  32  55 S6        29.85S
EFFINGHAM*     CLEAR     40  32  70 S5        29.78S
MARION         PTCLDY    41  32  70 S9        29.83R
MT. VERNON     CLEAR     45  32  61 CALM      29.80R
CENTRALIA*     CLEAR     39  32  75 S6        29.78S WCI  35
SALEM*         CLEAR     46  34  65 S5        29.78S
METROPOLIS*    CLEAR     43  33  67 SW3       29.85R
$$

ILZ067-068-072-073-078-083-087-091-250100-
SOUTHEAST ILLINOIS

CITY           SKY/WX    TMP DP  RH WIND       PRES   REMARKS
LAWRENCEVILLE  CLEAR     37  31  78 SW8       29.80R WCI  31
FLORA*         CLEAR     37  31  82 S3        29.79S
FAIRFIELD*     CLEAR     41  33  75 CALM      29.79R
HARRISBURG*    CLEAR     43  31  63 S7        29.84R
ROBINSON*      CLEAR     37  32  81 SW6       29.79R WCI  33
CARMI*         CLEAR     39  34  81 S6        29.80S WCI  35
$$

ABBREVIATIONS USED IN REMARKS
   TC - TEMPERATURE IN CELSIUS
  WCI - WIND CHILL INDEX
   HX - HEAT INDEX
  VSB - VISIBILITY
$$



USA.gov is the U.S. government's official web portal to all federal, state and local government web resources and services.